This is the latest recevied weather packets stored in our database for station/object IK2ILW-4. If no packets are shown the sender has not sent any weather packets the latest 10 day(s).
| Time | Temp. | Humidity | Pressure | Rain* | Wind** | Luminosity | Snow |
|---|---|---|---|---|---|---|---|
| 1778086958 | 5° C | 94% | 1010.8 hPa | 19.81 mm | - | 0 W/m² | - |
| 1778086658 | 5° C | 93% | 1010.2 hPa | 19.81 mm | - | 0 W/m² | - |
| 1778086357 | 5° C | 94% | 1010.2 hPa | 19.56 mm | - | 0 W/m² | - |
| 1778086057 | 5° C | 94% | 1010.2 hPa | 19.3 mm | - | 0 W/m² | - |
| 1778085754 | 5.56° C | 93% | 1009.5 hPa | 19.05 mm | - | 0 W/m² | - |
| 1778085469 | 6.11° C | 93% | 1009.5 hPa | 18.54 mm | - | 0 W/m² | - |
| 1778085168 | 7.22° C | 93% | 1009.5 hPa | 18.03 mm | - | 0 W/m² | - |
| 1778084865 | 7.78° C | 92% | 1009.3 hPa | 17.53 mm | - | 0 W/m² | - |
| 1778084565 | 7.22° C | 97% | 1009.3 hPa | 17.02 mm | - | 0 W/m² | - |
| 1778084264 | 7.22° C | 97% | 1009.3 hPa | 16.51 mm | - | 0 W/m² | - |
| 1778083960 | 7.22° C | 97% | 1009.2 hPa | 16.51 mm | - | 0 W/m² | - |
| 1778083668 | 7.22° C | 97% | 1009.2 hPa | 16.26 mm | - | 0 W/m² | - |
| 1778083363 | 7.22° C | 97% | 1009.2 hPa | 16.26 mm | - | 0 W/m² | - |
| 1778083059 | 7.22° C | 97% | 1009.3 hPa | 16.26 mm | - | 0 W/m² | - |
| 1778082755 | 7.22° C | 97% | 1009.3 hPa | 16.26 mm | - | 0 W/m² | - |
| 1778082454 | 7.22° C | 97% | 1009.3 hPa | 16.26 mm | - | 11 W/m² | - |
| 1778082150 | 7.22° C | 97% | 1009.4 hPa | 16.26 mm | - | 21 W/m² | - |
| 1778081868 | 7.22° C | 97% | 1009.4 hPa | 16.26 mm | - | 25 W/m² | - |
| 1778081564 | 7.22° C | 97% | 1009.4 hPa | 16.26 mm | - | 16 W/m² | - |
| 1778081264 | 7.22° C | 97% | 1009.4 hPa | 16.26 mm | - | 9 W/m² | - |
| 1778080961 | 7.22° C | 97% | 1009.4 hPa | 16.26 mm | - | 11 W/m² | - |
| 1778080660 | 7.22° C | 97% | 1009.4 hPa | 16 mm | - | 11 W/m² | - |
| 1778080357 | 7.22° C | 97% | 1009.6 hPa | 16 mm | - | 21 W/m² | - |
| 1778080057 | 7.22° C | 97% | 1009.6 hPa | 15.49 mm | - | 23 W/m² | - |
| 1778079756 | 7.22° C | 97% | 1009.6 hPa | 15.49 mm | - | 53 W/m² | - |
* Rain since midnight (hover to see other rain measurements)
** Current wind speed in m/s (hover to see current wind gust speed)